Skip Page Navigation
NASA JPL Caltech
NASA Logo - Jet Propulsion Laboratory + View the NASA Portal
+ Center for Near-Earth Object Studies
JPL Home Earth Solar System Stars & Galaxies Technology
JPL Solar System Dynamics
BODIES ORBITS EPHEMERIDES TOOLS PHYSICAL DATA DISCOVERY FAQ SITE MAP
JPL Small-Body Database Browser
Search: [ help ]  
(2021 FV)
Classification: Apollo [NEO]          SPK-ID: 54132078
Ephemeris | Orbit Diagram | Orbital Elements | Mission Design | Physical Parameters | Close-Approach Data ]

[ hide orbit diagram ]

For accurate long-term ephemerides, please instead use our Horizons system.This orbit viewer was implemented using two-body methods, and hence should not be used for determining accurate long-term trajectories (over several years or decades) or planetary encounter circumstances.


Orbital Elements at Epoch 2459396.5 (2021-Jul-01.0) TDB
Reference: JPL 3 (heliocentric ecliptic J2000)
 Element Value Uncertainty (1-sigma)   Units 
e .5392661726963023 0.00063341  
a 2.020511261177562 0.0026541 au
q .9309178864725591 5.7035e-05 au
i 3.456759356932742 0.0032295 deg
node .9023872228887928 2.577e-05 deg
peri 219.8675241417929 0.0023327 deg
M 24.05572788266062 0.045493 deg
tp 2459326.401884696129
(2021-Apr-21.90188470)
0.0055653 TDB
period 1049.035873388935
2.87
2.067
0.005659
d
yr
n .3431722490452224 0.00067618 deg/d
Q 3.110104635882564 0.0040854 au
  Orbit Determination Parameters
   # obs. used (total)      17  
   data-arc span      4 days  
   first obs. used      2021-03-18  
   last obs. used      2021-03-22  
   planetary ephem.      DE441  
   SB-pert. ephem.      SB441-N16  
   condition code      7  
   norm. resid. RMS      .64495  
   source      ORB  
   producer      Otto Matic  
   solution date      2021-Apr-15 23:26:48  

Additional Information
 Earth MOID = .00416745 au 
 Jupiter MOID = 1.88069 au 
 T_jup = 3.623 
[ show covariance matrix ]

Ephemeris | Orbit Diagram | Orbital Elements | Mission Design | Physical Parameters | Close-Approach Data ]

Physical Parameter Table
Parameter Symbol Value Units Sigma Reference Notes
absolute magnitude H 28.70   .43936 MPO606253 autocmod 2.9c

[ show close-approach data ]
Ephemeris | Orbit Diagram | Orbital Elements | Mission Design | Physical Parameters | Close-Approach Data ]
ABOUT SSD CREDITS/AWARDS PRIVACY/COPYRIGHT GLOSSARY LINKS
FirstGov 2021-Aug-05 22:01 UT
(server date/time)  
NASA Home Page
Site Manager:   Ryan S. Park
Webmaster  Alan B. Chamberlin